Regional Weather Roundup
Issued by NWS

Home | Current Version | Previous Version | Text Only | Print | Product List | Glossary Off
Versions: 1 2 3 4 5 6 7 8 9 10 11 12 13 14 15 16 17 18 19 20 21 22 23 24 25 26 27 28 29 30 31 32 33 34 35 36 37 38 39 40 41 42 43 44 45 46 47 48 49 50

000
ASUS43 KMKX 270121
RWRWI

WISCONSIN REGIONAL WEATHER ROUNDUP
NATIONAL WEATHER SERVICE MILWAUKEE/SULLIVAN WI
800 PM CDT WED APR 26 2017

NOTE: "FAIR" INDICATES FEW OR NO CLOUDS BELOW 12,000 FEET WITH NO
SIGNIFICANT WEATHER AND/OR OBSTRUCTIONS TO VISIBILITY.

WIZ001-002-006>008-014>016-023>028-270200-
NORTHWEST WISCONSIN

CITY           SKY/WX    TMP DP  RH WIND       PRES   REMARKS
SUPERIOR ARPT  CLOUDY    33  29  86 NE10      29.61S WCI  25
ASHLAND        LGT SNOW  31  29  92 N16       29.60S FOG     WCI  20
HAYWARD        CLOUDY    33  29  85 N10       29.55S WCI  25
SIREN          CLOUDY    34  31  87 NE7       29.57F WCI  28
CUMBERLAND     CLOUDY    34  32  93 N12       29.54S WCI  25
RICE LAKE      CLOUDY    36  33  88 N6        29.55R WCI  31
CHETEK         CLOUDY    37  34  89 N7        29.53R WCI  31
LADYSMITH      CLOUDY    35  32  89 N9        29.53S WCI  28
EAU CLAIRE     CLOUDY    39  35  86 NW9       29.53R WCI  33
MENOMONIE      CLOUDY    39  35  87 NW7       29.53S WCI  34
NEW RICHMOND   CLOUDY    37  34  90 N10       29.55S WCI  29
OSCEOLA        CLOUDY    37  32  83 N8        29.59S WCI  30
$$

WIZ003>005-009-010-017-018-270200-
NORTH CENTRAL WISCONSIN

CITY           SKY/WX    TMP DP  RH WIND       PRES   REMARKS
MANITOWISH WTR CLOUDY    32  32 100 N6        29.49R FOG     WCI  26
ARBOR VITAE    CLOUDY    37  35  95 N9        29.48R WCI  30
WOODRUFF       CLOUDY    37  35  95 N9        29.48R WCI  30
RHINELANDER    CLOUDY    38  38 100 N7        29.47R FOG     WCI  33
EAGLE RIVER    LGT SNOW  35  35 100 NW9       29.47R WCI  27
LAND O LAKES   CLOUDY    34  34  99 NW6       29.49R FOG     WCI  29
PHILLIPS       CLOUDY    33  33 100 NW8       29.50R WCI  26
TOMAHAWK       CLOUDY    36  35  95 NW6       29.49R FOG     WCI  31
MEDFORD        CLOUDY    37  37  97 NW7       29.49R FOG     WCI  32
MERRILL        CLOUDY    41  41 100 N7        29.47S FOG
$$

WIZ029-030-035-036-043>047-270200-
CENTRAL WISCONSIN

CITY           SKY/WX    TMP DP  RH WIND       PRES   REMARKS
WAUSAU         CLOUDY    44  43  96 W10       29.45S
MOSINEE        CLOUDY    43  41  93 W8        29.47S
MARSHFIELD     CLOUDY    40  38  93 NW13      29.48S WCI  32
STEVENS POINT  CLOUDY    43  42  97 W9        29.49R
WAUPACA        CLOUDY    51  48  91 W8        29.47R FOG
WAUTOMA        CLOUDY    48  46  93 W13       29.48R
WISC RAPIDS    CLOUDY    45  43  93 NW10      29.50R
CAMP DOUGLAS   DRIZZLE   45  43  93 W9        29.49R FOG
$$

WIZ011>013-019>022-031-037>040-048>050-270200-
NORTHEAST WISCONSIN

CITY           SKY/WX    TMP DP  RH WIND       PRES   REMARKS
ANTIGO         FOG       44  44 100 NW14      29.44S VSB 3/4
SHAWANO        CLOUDY    58  53  84 W7        29.43R
OCONTO         MOCLDY    64  56  77 S6        29.40R
STURGEON BAY   CLOUDY    62  56  80 S8        29.41S
GREEN BAY      CLOUDY    63  57  81 SW9       29.43R
MANITOWOC      CLOUDY    58  53  84 SW6       29.44R
APPLETON       CLOUDY    55  48  76 W15       29.44R
CLINTONVILLE   CLOUDY    52  50  93 W13       29.44R
OSHKOSH        CLOUDY    56  52  86 NW12G20   29.44R
$$

WIZ032>034-041-042-053>061-270200-
SOUTHWEST WISCONSIN

CITY           SKY/WX    TMP DP  RH WIND       PRES   REMARKS
LA CROSSE      CLOUDY    44  40  85 W10       29.52S
SPARTA         CLOUDY    42  40  93 W5        29.52S
VIROQUA        CLOUDY    42  40  95 W8        29.51S
BOSCOBEL       CLOUDY    48  43  82 W6        29.51F
PRAIRIE DU CHI CLOUDY    46  40  81 W8        29.52F
PLATTEVILLE    CLOUDY    47  47 100 W9        29.49F
$$

WIZ056-057-062-063-064-067-068-270200-
SOUTH CENTRAL WISCONSIN

CITY           SKY/WX    TMP DP  RH WIND       PRES   REMARKS
REEDSBURG      CLOUDY    47  47 100 W8        29.49R
BARABOO/DELLS  CLOUDY    49  47  93 W8        29.48R FOG
LONE ROCK      CLOUDY    49  46  90 W10       29.50S FOG
MINERAL POINT  CLOUDY    48  48 100 W9        29.48F
MADISON        CLOUDY    53  49  86 SW7       29.47S
MIDDLETON      CLOUDY    53  50  88 W8        29.48S
WATERTOWN      LGT RAIN  56  56 100 SW7       29.45F
MONROE         DRIZZLE   50  48  93 W12       29.48R
JANESVILLE     CLOUDY    55  54  94 W8        29.46F
$$

WIZ051-052-058>065-066-070>072-270200-
SOUTHEAST WISCONSIN

CITY           SKY/WX    TMP DP  RH WIND       PRES   REMARKS
MILWAUKEE      LGT RAIN  63  56  78 W10       29.46R
WAUKESHA       CLOUDY    57  54  88 SW8       29.47S
MILWAUKEE/TIMM CLOUDY    63  52  67 SW12      29.48R
RACINE         CLOUDY    64  55  72 VRB7      29.46F
KENOSHA        CLOUDY    62  54  74 SW9       29.46S
FOND DU LAC    LGT RAIN  60  53  77 SW7       29.45R
SHEBOYGAN      CLOUDY    63  57  81 SW14G23   29.45R
WEST BEND      CLOUDY    59  55  88 SW8       29.46S
JUNEAU         DRIZZLE   56  53  91 SW8       29.47S
$$

LSZ147-162-270200-
LAKE SUPERIOR

STATION/POSITION TIME  TEMP    WIND        PRES    WAVE
                       AIR SEA DIR/SP/G            HT/PER
                 (UTC) (F)     (DEG/KT/KT) (MB)    (FT/S)
DEVILS ISLAND    0100   30      20/ 15/ 16 1003.9R
PORT WING        2340   33      20/ 19/ 21 1002.4R
SAXON HARBOR     0030   33      30/ 19/ 22 1002.0R
$$

LMZ867-665-643>646-270200-
LAKE MICHIGAN

STATION/POSITION TIME  TEMP    WIND        PRES    WAVE
                       AIR SEA DIR/SP/G            HT/PER
                 (UTC) (F)     (DEG/KT/KT) (MB)    (FT/S)
CHAMBERS ISLAND  0030   57     160/  2/  6  995.3F
N MID LAKE BUOY  0050   42 37  170/  8/ 10  997.3F   2/ 5
NORTHPORT PIER   0040   49     150/  2/  4  995.9S
SISTER BAY       0021   59     180/ 12/ 14   N/A
KEWAUNEE LAKESHO 0054   49     170/ 11/ 12  995.9R
SHEBOYGAN LAKESH 0100   64     220/ 12/ 13  997.2R
PORT WASHINGTON  0030   66     210/  6/ 14  998.3R
MILWAUKEE LAKESH 0100   63     250/ 10/ 12   N/A
S MID LAKE BUOY  0050   50 42  150/  4/  6  997.6F   1
KENOSHA   LAKESH 0100   64     270/  7/ 15  997.6
$$

TC  - TEMPERATURE IN CELSIUS
VSB - VISIBILITY IN STATUTE MILES
WCI - WIND CHILL INDEX
HX  - HEAT INDEX





USA.gov is the U.S. government's official web portal to all federal, state and local government web resources and services.